Tracking 30415 objects as of 15-May-2025
HD Live streaming from Space Station
objects crossing your sky now

COSMOS 2528

Track COSMOS 2528 now!
10-day predictions


NORAD ID: 43657
Int'l Code: 2018-082A
Perigee: 906.6 km
Apogee: 918.4 km
Inclination: 67.1 °
Period: 103.1 minutes
Semi major axis: 7283 km
RCS: Unknown
Launch date: October 25, 2018
Source: Commonwealth of Independent States (former USSR) (CIS)
Launch site: PLESETSK MISSILE AND SPACE COMPLEX (PKMTR)
Your satellite tracking list
Your tracking list is empty




NASA's NSSDC Master Catalog

Two Line Element Set (TLE):
1 43657U 18082A   25134.86479818 -.00000031  00000-0  31588-4 0  9994
2 43657  67.1493 325.8540 0008085 266.1243  93.8917 13.96673947334326
Source of the keplerian elements: AFSPC